Location: Gollag?dem
(16.8053°N, 80.8024°E)
Time: 12:34:12
(UTC+00:00)

CZ-4B R/B - Pass Details

Date: 13 August 2020
Orbit: 391 x 462 km, 97.6° (Epoch: 24 September)

Event Time Altitude Azimuth Distance (km) Brightness Sun altitude
Rises 22:53:08 0° 151° (SSE) 2,424 5.2 -20.6°
Reaches altitude 10° 22:55:18 10° 141° (SE) 1,543 4.3 -20.1°
Maximum altitude 22:58:16 31° 77° (ENE) 781 3.3 -19.4°
Drops below altitude 10° 23:01:10 10° 13° (NNE) 1,509 4.5 -18.8°
Sets 23:03:16 0° 3° (N) 2,361 5.4 -18.3°
